Regional Weather Roundup
Issued by NWS Charleston, SC

Current Version | Previous Version | Text Only | Print | Product List | Glossary Off
Versions: 1 2 3 4 5 6 7 8 9 10 11 12 13 14 15 16 17 18 19 20 21 22 23 24 25 26 27 28 29 30 31 32 33 34 35 36 37 38 39 40 41 42 43 44 45 46 47 48 49 50
000 ASUS42 KCHS 301510 RWRCHS REGIONAL WEATHER ROUNDUP NATIONAL WEATHER SERVICE CHARLESTON SC 1100 AM EDT WED JUL 30 2014 NOTE: "FAIR" INDICATES FEW OR NO CLOUDS BELOW 12,000 FEET WITH NO SIGNIFICANT WEATHER AND/OR OBSTRUCTIONS TO VISIBILITY. NOT ALL STATIONS ARE QUALITY CONTROLLED BY THE NATIONAL WEATHER SERVICE. USE DATA WITH CAUTION...ESPECIALLY DEWPOINT OBSERVATIONS. SCZ027-030-031-034>040-042>050-301600- ...SOUTH CAROLINA... CITY SKY/WX TMP DP RH WIND PRES REMARKS N CHARLESTON PTSUNNY 84 71 65 SE7 30.02R WATERFRONT PRK N/A 82 N/A N/A E14 N/A FORT JOHNSON NOT AVBL MOUNT PLEASANT FAIR 82 73 74 CALM 30.01S JOHNS ISLAND CLOUDY 81 70 69 CALM 30.02R PINOPOLIS N/A 86 72 62 E3 29.95R HX 92 MONCKS CORNER N/A 84 73 70 SE6 30.01S HX 91 SUMMERVILLE PTSUNNY 84 70 61 CALM 30.02S BEAUFORT MCAS PTSUNNY 85 69 58 VRB6 30.00R BEAUFORT ARPT FAIR 84 70 61 E6 30.00R HILTON HEAD IS PTSUNNY 82 73 74 NE7 30.01R GEORGETOWN NOT AVBL WALTERBORO MOSUNNY 86 68 54 SE6 30.01S ORANGEBURG SUNNY 81 65 58 VRB7 30.03R BARNWELL FAIR 82 68 61 SE7 30.03R AIKEN FAIR 81 64 57 NE8 30.07S MANNING PTSUNNY 82 73 74 E5 30.03R KINGSTREE NOT AVBL COLUMBIA MOSUNNY 83 60 45 MISG 30.04R SUMTER PTSUNNY 77 67 72 VRB5 30.03R FLORENCE SUNNY 81 68 64 E5 30.04S MYRTLE BEACH PTSUNNY 82 70 65 NE12 30.03R N MYRTLE BEACH SUNNY 83 68 60 E8 30.03R $$ GAZ063-065-086>088-099>101-113>116-118-119-134-136>141-150-301600- ...GEORGIA... CITY SKY/WX TMP DP RH WIND PRES REMARKS SAVANNAH ARPT CLOUDY 85 68 56 SE9 30.00R HUNTER AAF PTSUNNY 84 70 61 E7 29.97S FORT STEWART CLOUDY 80 68 67 N3 29.99R STATESBORO NOT AVBL SYLVANIA MOSUNNY 82 73 74 CALM 30.02S CLAXTON FAIR 81 68 65 CALM 30.01R THOMSON SUNNY 80 67 64 NE5 30.08S AUGUSTA-BUSH SUNNY 81 63 54 E5 30.02R AUGUSTA-DANIEL SUNNY 83 60 45 NE7 30.04R SWAINSBORO FAIR 82 68 61 CALM 30.03R VIDALIA N/A 82 64 54 NE3 30.02R ALMA SUNNY 85 62 46 VRB3 30.01R WAYCROSS SUNNY 89 66 46 CALM 30.00S HX 91 JESUP PTSUNNY 82 66 57 E3 30.01R BRUNSWICK PTSUNNY 86 68 54 NW3 29.99S SAINT SIMONS MOSUNNY 86 71 60 NE6 29.98R HX 91 $$ SCZ027-028-034-036>038-045-046-048>050-GAZ119-141-301600- ...LAKE AND SUPPLEMENTAL COASTAL OBSERVATIONS... STATION/POSITION TIME TEMP WIND PRES WAVE SWELL AIR SEA DIR/SP/G HT/PER HT/PER/DIR (UTC) (F) (DEG/KT/KT) (MB) (FT/S) (FT/S/D) UPR LAKE MARION NOT AVBL WINYAH BAY 1400 81 90/ 8 1016.0S LAKE MURRAY 1400 77 360/ 3/ 5 1016.6S ACE BASIN NERRS 1400 76 100/ 3 1016.0S FORT PULASKI 1500 83 90/ 7/ 10 1015.8S SAPELO ISLAND 1400 85 340/ 3 1016.0R $$ ANZ835-935-AMZ111-154-330-350-352-354-374-450-454-472-301600- ...C-MAN AND BUOY OBSERVATIONS... STATION/POSITION TIME TEMP WIND PRES WAVE SWELL AIR SEA DIR/SP/G HT/PER HT/PER/DIR (UTC) (F) (DEG/KT/KT) (MB) (FT/S) (FT/S/D) FOLLY BEACH CMAN 1400 81 110/ 11/ 13 1016.1R BUOY 41004 1500 82 84 70/ 10/ 12 1015.7R 2/ 8 2/ 8 BUOY 41008 1500 83 85 90/ 8/ 10 1015.2R 2/ 9 2/110/ 9 5E ST. MARYS GA 1500 85 N/A 2/ 8 FRYING PAN BUOY NOT AVBL BUOY 41025 1500 VRB 16/ 19 1017.4R 4/ 7 2/ 90/ 7 CAPE LOOKOUT NC 1400 78 50/ 14/ 15 1017.3R BUOY 41002 1411 79 80 90/ 2/ 4 1015.8R 5/ 7 5/190/ 7 BUOY 41010 1500 84 85 260/ 2/ 2 1015.7R 3/ 9 2/110/ 9 BUOY 41012 NOT AVBL ST AUGUSTINE FL 1500 86 290/ 5/ 7 1015.9R CAPERS NEARSHORE 1400 82 90/ 10/ 14 N/A FRIPP NEARSHORE NOT AVBL $$

USA.gov is the U.S. government's official web portal to all federal, state and local government web resources and services.